* Astronomy

Members Login
Username 
 
Password 
    Remember Me  
Post Info TOPIC: Asteroid 2003 UF22


L

Posts: 131433
Date:
Asteroid 2003 UF22
Permalink  
 


Orbital elements:
2003 UF22                                                Earth MOID = 0.1792 AU
Epoch 2012 Mar. 14.0 TT = JDT 2456000.5                 MPC
M  86.11166              (2000.0)            P               Q
n   0.38105658     Peri.   13.21140     +0.75481505     -0.64899499
a   1.8842698      Node    27.97382     +0.58185772     +0.59549157
e   0.3799571      Incl.   11.70768     +0.30281320     +0.47349264
P   2.59           H   20.1           G   0.15           U   1

MPEC 2012 - J19



__________________
Page 1 of 1  sorted by
 
Quick Reply

Please log in to post quick replies.



Create your own FREE Forum
Report Abuse
Powered by ActiveBoard